Regional Weather Roundup
Issued by NWS

Home | Current Version | Previous Version | Graphics & Text | Print | Product List | Glossary On
Versions: 1 2 3 4 5 6 7 8 9 10 11 12 13 14 15 16 17 18 19 20 21 22 23 24 25 26 27 28 29 30 31 32 33 34 35 36 37 38 39 40 41 42 43 44 45 46 47 48 49 50
167
ASUS45 KTFX 180510
RWRMT
MONTANA REGIONAL WEATHER ROUNDUP
NATIONAL WEATHER SERVICE GREAT FALLS MT
1000 PM MST SAT FEB 17 2018

NOTE: "FAIR" INDICATES FEW OR NO CLOUDS BELOW 12000 FEET WITH NO
SIGNIFICANT WEATHER AND/OR OBSTRUCTIONS TO VISIBILITY.

MTZ001>007-043-180600-
WEST OF THE DIVIDE

CITY           SKY/WX    TMP DP  RH WIND       PRES   REMARKS
KALISPELL      BLWGSNOW  15  12  88 N36G47    29.48R VSB 1/2 WCI  -7
MISSOULA       MOCLDY    40  25  55 W18G31    29.43F
MULLAN PASS    MIX PCPN  23  18  81 W8G23     29.38S WCI  14
ANACONDA         N/A     36  23  60 MISG      29.42R
DEER LODGE       N/A     34  23  64 W10       29.43F WCI  26
EUREKA           N/A     16  10  79 MISG      29.61R
HAMILTON         N/A     37  28  70 MISG      29.48R
PLAINS           N/A     37  24  60 S6        29.49R
RONAN            N/A     34  28  80 SW15      29.46S WCI  24
$$

MTZ008-052>055-180600-
SOUTHWEST MONTANA

CITY           SKY/WX    TMP DP  RH WIND       PRES   REMARKS
BOZEMAN        LGT SNOW  35  30  82 W24G32    29.42R WCI  23
DILLON         FLURRIES  28  28 100 NW13      29.44R WCI  17
ENNIS          MIX PCPN  36  27  69 S22G29    29.45S WCI  24
W YELLOWSTONE  SNOW      28  28 100 SW32G44   29.43F VSB 1/4 WCI  12
$$

MTZ009-010-012-014-046-048-049-054-180600-
EAST SLOPES AND CENTRAL MONTANA

CITY           SKY/WX    TMP DP  RH WIND       PRES   REMARKS
CUT BANK       SNOW       6   2  83 N20       29.65R VSB 1/2 WCI -14
GREAT FALLS    LGT SNOW   8   4  83 N21       29.56R VSB 3/4 WCI -12
MALMSTROM AFB  LGT SNOW  12   8  84 NW15      29.56R WCI  -4
HELENA         FAIR      19  14  81 N5        29.45R
AUGUSTA        HVY SNOW   6   4  90 N35G40    29.53R WCI -19
BOWMANS CRNR   LGT SNOW   6   4  90 N24       29.54R WCI -16
FAIRFIELD      HVY SNOW   7   3  84 N23       29.59R VSB 1/4 WCI -15
POWER          LGT SNOW   6   3  87 N21       29.56R VSB 7/8 WCI -14
RAYNESFORD     SNOWSHWR  13   8  81 W21G28    29.51R WCI  -6
ULM            LGT SNOW   9   7  89 NW18      29.57R WCI  -9
WHITE SULPHUR    N/A     32  25  74 NW9G17    29.36F WCI  24
$$

MTZ011-013-016-021-045-047-050-051-180600-
NORTH CENTRAL MONTANA

CITY           SKY/WX    TMP DP  RH WIND       PRES   REMARKS
HAVRE          LGT SNOW  10   7  87 E22       29.66R FOG     WCI -10
LEWISTOWN      CLOUDY    17  14  88 E15G23    29.38S WCI   2
N BAR RANCH    CLOUDY    14  12  92 NE6       29.40F WCI   5
CHINOOK          N/A     10   7  85 E9        29.70R WCI  -2
GEYSER         LGT SNOW  16  14  92 W30G40    29.44R WCI  -4
STANFORD       LGT SNOW  15  13  90 N30G44    29.41R FOG     WCI  -5
WINIFRED       LGT SNOW  13  11  92 E29       29.42S VSB 1   WCI  -8
$$

MTZ017>020-022>027-061-062-180600-
NORTHEAST MONTANA

CITY           SKY/WX    TMP DP  RH WIND       PRES   REMARKS
GLASGOW        LGT SNOW  13   8  81 E18       29.68F VSB 1   WCI  -4
GLENDIVE       FLURRIES  15  10  80 E15       29.67F WCI   0
JORDAN           N/A     14  10  84 E18       29.58F WCI  -3
MALTA          CLOUDY    10   7  85 NE16G23   29.68F FOG     WCI  -7
SIDNEY         FLURRIES  14   8  77 N5        29.78S
WOLF POINT     LGT SNOW  14   6  70 E13       29.76S WCI   0
PLENTYWOOD       N/A      9   3  78 CALM      29.79R
SCOBEY           N/A      9  -2  61 W5        29.75F
$$

MTZ028>42-056>058-180600-
SOUTHCENTRAL AND SOUTHEAST MONTANA

CITY           SKY/WX    TMP DP  RH WIND       PRES   REMARKS
BAKER          CLOUDY    16  12  84 SE20      29.61F WCI  -1
BILLINGS       CLOUDY    21  20  96 E5        29.42F
LIVINGSTON     FLURRIES  39  32  76 SW35G52   29.33F WCI  26
MILES CITY     LGT SNOW  17  14  88 NE13      29.57F FOG     WCI   4
BIG TIMBER     CLOUDY    21  19  93 N12G17    29.43R WCI   9
EKALAKA          N/A     16   9  74 E29       29.54  WCI  -4
FORSYTH          N/A     18  16  93 E12       29.53F WCI   5
HARLOWTON      LGT SNOW  16  15  94 S7        29.42F WCI   7
LAUREL           N/A     23  19  86 NE10      29.43F WCI  12
$$

REGIONAL REPORTS...DAKOTAS

CITY           SKY/WX    TMP DP  RH WIND       PRES   REMARKS
WILLISTON      CLOUDY    13   5  70 NE7       29.79F WCI   3
MINOT          CLOUDY    11   3  70 NE6       29.87S WCI   1
DICKINSON      CLOUDY    15   8  73 SE9       29.73F WCI   3
BEACH          CLOUDY    16   9  73 E15       29.70F WCI   1
CROSBY         FAIR       3   1  92 CALM      29.83F
TIOGA          CLOUDY     7   5  92 E7        29.80F WCI  -5
BISMARCK       CLOUDY    17   9  70 S7        29.89F WCI   8
GRAND FORKS    MOCLDY     5   3  91 SW3       29.97F
FARGO          FAIR      12   6  77 W7        29.97F WCI   1
BUFFALO SD       N/A     18   7  62 E17       29.56F WCI   3
RAPID CITY     FAIR      23  21  92 E3        29.60F
$$

REGIONAL REPORTS...WYOMING/IDAHO/WASHINGTON

CITY           SKY/WX    TMP DP  RH WIND       PRES   REMARKS
GILLETTE       FAIR      42  21  43 SW24G35   29.45F
SHERIDAN       FAIR      23  20  88 CALM      29.44F
BUFFALO WY     FAIR      41  19  41 VRB5      29.42F
CODY           FAIR      40  25  55 SW21G30   29.41F
YELLOWSTONE LA   N/A     24  21  88 W8        29.52F WCI  15
IDAHO FALLS    CLOUDY    44  25  47 S23G33    29.57F
SALMON         LGT RAIN  36  34  93 CALM      29.50R
BOISE          CLOUDY    53  31  42 W17G28    29.64F
SPOKANE        MOCLDY    34  27  75 SW13      29.48S WCI  25
$$

REGIONAL REPORTS...ALBERTA

CITY           SKY/WX    TMP DP  RH WIND       PRES   REMARKS
CALGARY        LGT SNOW   7   1  78 NW8       29.78R WCI  -6
CARDSTON         N/A      5   1  85 N6          N/A  WCI  -6
EDMONTON       CLOUDY     5  -6  61 NW6       29.92R WCI  -6
FORT MCMURRAY  CLEAR     -6  -9  84 SW9       29.92S WCI -22
HIGH LEVEL     CLOUDY    10   5  79 NW10G18   30.02R WCI  -3
LETHBRIDGE     LGT SNOW   9   5  85 N8        29.80R VSB 1   WCI  -4
LLOYDMINSTER   FLURRIES   5   0  78 NW7       29.85S WCI  -7
MEDICINE HAT   LGT SNOW   9   5  85 N12       29.81R WCI  -6
MILK RIVER       N/A      7   3  85 NE20        N/A  WCI -13
PEACE RIVER    FLURRIES   5  -2  72 W6        30.00R WCI  -6
PINCHER CREEK  LGT SNOW   5   1  85 E3        29.74R VSB 1
WATERTON GATE    N/A      3   0  85 N6          N/A  WCI  -8
$$

REGIONAL REPORTS...SASKATCHEWAN

CITY           SKY/WX    TMP DP  RH WIND       PRES   REMARKS
CORONACH         N/A      9   1  72 NE6         N/A  WCI  -1
CYPRESS HILLS    N/A      1  -2  85 N8          N/A  WCI -12
ESTEVAN        MOCLDY     0  -6  78 VRB2      29.83F
MOOSE JAW        N/A      3  -2  78 W5          N/A
PRINCE ALBERT  CLEAR     -9 -13  84 SW2       29.91R
REGINA         CLOUDY     5  -2  72 N6        29.82F WCI  -6
ROCKGLEN         N/A      7   1  78 NE3         N/A
SASKATOON      FLURRIES   5   0  78 W6        29.89R WCI  -6
SWIFT CURRENT  CLOUDY     5  -2  72 NE9       29.75S WCI  -9
VAL MARIE        N/A      7   3  85 NE8         N/A  WCI  -6
$$




USA.gov is the U.S. government's official web portal to all federal, state and local government web resources and services.